Regional Weather Roundup
Issued by NWS

Home | Current Version | Previous Version | Text Only | Print | Product List | Glossary On
Versions: 1 2 3 4 5 6 7 8 9 10 11 12 13 14 15 16 17 18 19 20 21 22 23 24 25 26 27 28 29 30 31 32 33 34 35 36 37 38 39 40 41 42 43 44 45 46 47 48 49 50
306
ASUS43 KDMX 300906
RWRIA

WEATHER ROUNDUP FOR IOWA
NATIONAL WEATHER SERVICE DES MOINES IA
400 AM CDT SUN APR 30 2017

NOTE: "FAIR" INDICATES FEW OR NO CLOUDS BELOW 12,000 FEET WITH NO
SIGNIFICANT WEATHER AND/OR OBSTRUCTIONS TO VISIBILITY.

* - THESE STATIONS ARE NOT NWS STATIONS...THUS NOT UNDER NWS
QUALITY CONTROL.  THEY ALSO DO NOT REPORT WEATHER SUCH
AS PRECIPITATION OR FOG.

IAZ001>003-012>014-020>022-031>034-043>046-301000-
   NORTHWEST IOWA

CITY           SKY/WX    TMP DP  RH WIND       PRES   REMARKS
CARROLL *      LGT RAIN  37  37 100 NE21G28   29.93S WCI  27
CHEROKEE *     RAIN      40  37  87 NE13      29.98F WCI  33
DENISON *      CLOUDY    37  37 100 NE21G28   29.95S FOG     WCI  27
ORANGE CITY *  CLOUDY    45  34  65 E15G22    29.98F
SHELDON *      CLOUDY    45  30  57 E24G30    29.98F
SIOUX CITY     LGT RAIN  42  36  79 NE14      29.98S
SPENCER        LGT RAIN  42  34  73 NE18      30.00F
STORM LAKE *   LGT RAIN  39  36  87 NE21G29   29.95F WCI  29
$$

IAZ055>058-069>071-079>083-090>094-301000-
   SOUTHWEST IOWA

CITY           SKY/WX    TMP DP  RH WIND       PRES   REMARKS
ATLANTIC *     MIX PCPN  39  39 100 NE16      29.89R WCI  30
AUDUBON *      DRIZZLE   37  36  93 NE20G26   29.92R WCI  27
CLARINDA *       N/A     41  41 100 NE13      29.88R FOG
COUNCIL BLFS * CLOUDY    39  39 100 NE15G22   29.89F FOG     WCI  31
CRESTON *      CLOUDY    39  39 100 NE22G28   29.85S FOG     WCI  29
HARLAN  *      CLOUDY    39  39 100 NE18      29.94R FOG     WCI  30
LAMONI         CLOUDY    41  39  93 NE15G25   29.82F FOG
RED OAK *      CLOUDY    39  39 100 NE17G24   29.87R WCI  30
SHENANDOAH *   MIX PCPN  41  39  93 NE16      29.86S
$$

IAZ047>049-059>061-072>074-084-301000-
   CENTRAL IOWA

CITY           SKY/WX    TMP DP  RH WIND       PRES   REMARKS
AMES           LGT RAIN  39  39 100 NE14G22   29.93F WCI  31
ANKENY *       CLOUDY    39  37  93 NE13      29.93R WCI  32
BOONE *        LGT RAIN  37  37 100 NE20      29.91F WCI  27
CHARITON *     CLOUDY    41  39  93 NE16G24   29.84F FOG
DES MOINES     DRIZZLE   41  39  93 NE16      29.89F
GRINNELL*      LGT RAIN  40  38  95 NE15G23   29.93R WCI  31
KNOXVILLE *    LGT RAIN  41  39  93 NE12G20   29.86F
MARSHALLTOWN   LGT RAIN  40  38  93 E18       29.94R FOG     WCI  31
NEWTON *       CLOUDY    39  39 100 NE21G26   29.89F WCI  29
PELLA *        DRIZZLE   40  40  97 E9        29.91F WCI  35
PERRY *        CLOUDY    40  38  96 NE14      29.92S WCI  32
$$

IAZ004>006-015-016-023>025-035-036-301000-
   NORTH CENTRAL IOWA

CITY           SKY/WX    TMP DP  RH WIND       PRES   REMARKS
ALGONA *       LGT RAIN  39  37  93 NE18G28   30.00S WCI  30
CLARION *      CLOUDY    37  37 100 NE20G28   29.98R FOG     WCI  27
ESTHERVILLE    LGT RAIN  41  33  73 NE21G29   30.01F
FORT DODGE *   CLOUDY    37  34  87 NE14G20   29.97F WCI  29
MASON CITY     LGT RAIN  39  33  79 NE20      30.01R WCI  29
FOREST CITY *  DRIZZLE   39  32  75 NE17      30.01S WCI  30
WEBSTER CITY * RAIN      37  37 100 NE18G24   29.95R WCI  27
IOWA FALLS *   RAIN      39  36  87 NE16G23   29.96R WCI  31
$$

IAZ007>011-017>019-026>030-037>042-050>054-066-301000-
   NORTHEAST IOWA

CITY           SKY/WX    TMP DP  RH WIND       PRES   REMARKS
CEDAR RAPIDS   CLOUDY    41  40  96 E15G25    29.92R
CHARLES CITY * CLOUDY    41  32  70 NE16G28   29.98S
CLINTON *      CLOUDY    44  41  89 E15       29.93R
DECORAH *      CLOUDY    43  30  61 NE12      29.99R
DUBUQUE        CLOUDY    40  38  93 NE16G29   29.93S WCI  31
MONTICELLO *   CLOUDY    41  39  93 NE14G22   29.93R
OELWEIN *      CLOUDY    43  37  81 NE20G28   29.95R
WATERLOO       CLOUDY    41  36  82 NE17      29.95R
$$

IAZ064-065-067-068-078-301000-
   EAST CENTRAL IOWA

CITY           SKY/WX    TMP DP  RH WIND       PRES   REMARKS
DAVENPORT      CLOUDY    44  41  89 E14       29.92R
IOWA CITY      CLOUDY    44  40  85 NE14G21   29.93R
MT. PLEASANT * CLOUDY    43  43 100 NE17      29.86R
MUSCATINE *    CLOUDY    45  41  87 NE10G17   29.90R
QUAD CITIES    CLOUDY    45  41  86 E18       29.90R
$$

IAZ062-063-075>077-085>089-095>099-301000-
   SOUTHEAST IOWA

CITY           SKY/WX    TMP DP  RH WIND       PRES   REMARKS
BURLINGTON     CLOUDY    44  44 100 E8        29.86R
FAIRFIELD *    CLOUDY    43  41  93 NE15      29.86R
FORT MADISON * DRIZZLE   45  43  93 E12       29.86F
KEOKUK *       LGT RAIN  45  43  93 E12       29.86R
OSKALOOSA *    DRIZZLE   41  40  97 NE14      29.92R
CENTERVILLE *  MIX PCPN  41  39  93 NE18G25   29.81F
OTTUMWA        LGT RAIN  42  41  96 NE10      29.91R
WASHINGTON *   CLOUDY    43  43 100 E22G28    29.87R
$$

ABBREVIATIONS USED IN REMARKS
   TC - TEMPERATURES IN CELSIUS
  WCI - WIND CHILL INDEX
   HX - HEAT INDEX
  VSB - VISIBILITY
$$





USA.gov is the U.S. government's official web portal to all federal, state and local government web resources and services.